UKL64Y UKWW-LGTS

Flight info

Callsign UKL64Y
Flight time 1h 46m
Altitude 36000
Route KOROP DCT IDKOG DCT ROMOL/N0444F360 DCT BLO/N0438F370 N127 NIKTI UY505 PEREN UM603 ARNAS
Aircraft A306/H-SDE3FGHIRWY/LB1

Departure

Time 2026-04-29 08:30
Airport Vinnytsia/Gavyryshivka International Airport (UKWW)

Arrival

Time 2026-04-29 10:17
Airport Thessaloniki Macedonia International Airport (LGTS)
Time Latitude Longitude Altitude Speed Heading
2026-04-29 08:05 49.24435 28.60601 988 ft 0 kts 225°
2026-04-29 08:26 49.24412 28.60594 988 ft 7 kts 184°
2026-04-29 08:26 49.24333 28.60644 988 ft 14 kts 143°
2026-04-29 08:26 49.24321 28.60738 988 ft 10 kts 67°
2026-04-29 08:26 49.24341 28.60853 984 ft 10 kts 118°
2026-04-29 08:27 49.24302 28.60927 987 ft 18 kts 135°
2026-04-29 08:27 49.24174 28.61105 986 ft 31 kts 137°
2026-04-29 08:27 49.24008 28.61335 980 ft 32 kts 137°
2026-04-29 08:27 49.23795 28.61621 987 ft 30 kts 138°
2026-04-29 08:28 49.23695 28.61757 989 ft 29 kts 138°
2026-04-29 08:28 49.23548 28.61958 986 ft 28 kts 139°
2026-04-29 08:28 49.23405 28.62152 987 ft 27 kts 138°
2026-04-29 08:28 49.23344 28.62287 985 ft 10 kts 81°
2026-04-29 08:29 49.23373 28.62371 988 ft 8 kts 53°
2026-04-29 08:29 49.23432 28.62453 985 ft 13 kts 12°
2026-04-29 08:29 49.23608 28.62259 979 ft 68 kts 317°
2026-04-29 08:29 49.24150 28.61521 987 ft 138 kts 319°
2026-04-29 08:30 49.24978 28.60392 1392 ft 172 kts 317°
2026-04-29 08:30 49.27026 28.57780 3034 ft 211 kts 325°
2026-04-29 08:30 49.28455 28.56956 3902 ft 235 kts 357°
2026-04-29 08:31 49.30047 28.57725 4961 ft 252 kts 34°
2026-04-29 08:31 49.31100 28.59915 6031 ft 266 kts 70°
2026-04-29 08:31 49.31167 28.62773 7141 ft 278 kts 104°
2026-04-29 08:31 49.30177 28.65282 8317 ft 280 kts 139°
2026-04-29 08:32 49.28480 28.66596 9464 ft 281 kts 171°
2026-04-29 08:32 49.26534 28.66698 10503 ft 286 kts 184°
2026-04-29 08:32 49.24471 28.66509 11011 ft 308 kts 189°
2026-04-29 08:32 49.22378 28.65515 11372 ft 326 kts 211°
2026-04-29 08:33 49.20703 28.63123 11790 ft 338 kts 238°
2026-04-29 08:33 49.19880 28.59765 12491 ft 342 kts 261°
2026-04-29 08:33 49.19674 28.56111 13267 ft 347 kts 268°
2026-04-29 08:33 49.19533 28.52409 14091 ft 350 kts 267°
2026-04-29 08:34 49.19356 28.48695 14862 ft 351 kts 266°
2026-04-29 08:34 49.19147 28.44977 15686 ft 351 kts 266°
2026-04-29 08:34 49.18921 28.41256 16545 ft 351 kts 266°
2026-04-29 08:34 49.18684 28.37541 17378 ft 351 kts 266°
2026-04-29 08:35 49.18440 28.33828 18262 ft 348 kts 265°
2026-04-29 08:35 49.18195 28.30191 19281 ft 342 kts 266°
2026-04-29 08:35 49.17951 28.26579 19983 ft 342 kts 266°
2026-04-29 08:35 49.17705 28.22956 20627 ft 344 kts 267°
2026-04-29 08:36 49.17456 28.19313 21245 ft 345 kts 267°
2026-04-29 08:36 49.17205 28.15667 21887 ft 346 kts 267°
2026-04-29 08:36 49.16951 28.12007 22511 ft 346 kts 268°
2026-04-29 08:36 49.16696 28.08345 23121 ft 347 kts 268°
2026-04-29 08:37 49.16439 28.04668 23714 ft 348 kts 268°
2026-04-29 08:37 49.16180 28.00987 24158 ft 351 kts 268°
2026-04-29 08:37 49.15917 27.97264 24498 ft 355 kts 268°
2026-04-29 08:37 49.15649 27.93490 24829 ft 359 kts 268°
2026-04-29 08:38 49.15336 27.89677 25167 ft 364 kts 265°
2026-04-29 08:38 49.14759 27.85872 25507 ft 372 kts 259°
2026-04-29 08:38 49.13801 27.82152 25805 ft 382 kts 251°
2026-04-29 08:38 49.12488 27.78568 26169 ft 390 kts 246°
2026-04-29 08:39 49.11025 27.75054 26492 ft 395 kts 244°
2026-04-29 08:39 49.09502 27.71602 26769 ft 398 kts 243°
2026-04-29 08:39 49.07911 27.68080 27160 ft 399 kts 243°
2026-04-29 08:39 49.06349 27.64629 27458 ft 401 kts 243°
2026-04-29 08:40 49.04747 27.61064 27759 ft 404 kts 243°
2026-04-29 08:40 49.03183 27.57559 28035 ft 406 kts 243°
2026-04-29 08:40 49.01598 27.53989 28320 ft 408 kts 243°
2026-04-29 08:40 49.00004 27.50392 28597 ft 410 kts 243°
2026-04-29 08:41 48.98412 27.46799 28994 ft 409 kts 243°
2026-04-29 08:41 48.96821 27.43213 29396 ft 409 kts 243°
2026-04-29 08:41 48.95229 27.39628 29799 ft 408 kts 243°
2026-04-29 08:41 48.93642 27.36059 30235 ft 406 kts 243°
2026-04-29 08:42 48.92065 27.32523 30670 ft 403 kts 243°
2026-04-29 08:42 48.90467 27.28936 30892 ft 406 kts 243°
2026-04-29 08:42 48.88876 27.25364 31080 ft 409 kts 243°
2026-04-29 08:42 48.87277 27.21777 31322 ft 411 kts 243°
2026-04-29 08:43 48.85666 27.18173 31564 ft 413 kts 243°
2026-04-29 08:43 48.84068 27.14606 31832 ft 415 kts 242°
2026-04-29 08:43 48.82440 27.10980 32091 ft 417 kts 242°
2026-04-29 08:43 48.80804 27.07341 32341 ft 418 kts 242°
2026-04-29 08:44 48.79157 27.03682 32587 ft 420 kts 242°
2026-04-29 08:44 48.77511 27.00032 32894 ft 420 kts 242°
2026-04-29 08:44 48.75863 26.96381 33193 ft 420 kts 242°
2026-04-29 08:44 48.74206 26.92711 33455 ft 422 kts 242°
2026-04-29 08:45 48.72542 26.89029 33716 ft 424 kts 241°
2026-04-29 08:45 48.70870 26.85339 33982 ft 426 kts 241°
2026-04-29 08:45 48.69193 26.81643 34244 ft 427 kts 241°
2026-04-29 08:45 48.67505 26.77928 34485 ft 429 kts 241°
2026-04-29 08:46 48.65815 26.74215 34761 ft 428 kts 240°
2026-04-29 08:46 48.64126 26.70509 35013 ft 429 kts 240°
2026-04-29 08:46 48.62427 26.66784 35214 ft 431 kts 241°
2026-04-29 08:46 48.60725 26.63056 35445 ft 432 kts 240°
2026-04-29 08:47 48.59019 26.59326 35710 ft 432 kts 240°
2026-04-29 08:47 48.57312 26.55600 35987 ft 432 kts 240°
2026-04-29 08:47 48.55599 26.51865 36208 ft 433 kts 240°
2026-04-29 08:48 48.52213 26.44512 36250 ft 418 kts 240°
2026-04-29 08:48 48.48919 26.37373 36250 ft 413 kts 240°
2026-04-29 08:49 48.45639 26.30265 36256 ft 412 kts 240°
2026-04-29 08:49 48.42365 26.23186 36250 ft 412 kts 240°
2026-04-29 08:50 48.39083 26.16118 36254 ft 412 kts 240°
2026-04-29 08:50 48.35815 26.09101 36255 ft 412 kts 240°
2026-04-29 08:51 48.32501 26.02001 36258 ft 412 kts 240°
2026-04-29 08:51 48.29206 25.94965 36250 ft 412 kts 240°
2026-04-29 08:52 48.25911 25.87946 36249 ft 411 kts 240°
2026-04-29 08:52 48.22615 25.80939 36249 ft 411 kts 240°
2026-04-29 08:53 48.19332 25.73978 36250 ft 411 kts 240°
2026-04-29 08:53 48.16028 25.66994 36252 ft 411 kts 240°
2026-04-29 08:54 48.12716 25.60008 36247 ft 411 kts 240°
2026-04-29 08:54 48.09400 25.53031 36248 ft 411 kts 240°
2026-04-29 08:55 48.05604 25.46541 36245 ft 420 kts 230°
2026-04-29 08:55 48.01260 25.40650 36243 ft 422 kts 227°
2026-04-29 08:56 47.96820 25.34895 36226 ft 422 kts 227°
2026-04-29 08:56 47.92388 25.29170 36230 ft 421 kts 227°
2026-04-29 08:57 47.87973 25.23439 36230 ft 421 kts 227°
2026-04-29 08:57 47.83556 25.17702 36228 ft 421 kts 227°
2026-04-29 08:58 47.79145 25.11983 36226 ft 420 kts 227°
2026-04-29 08:58 47.74511 25.06636 36220 ft 429 kts 217°
2026-04-29 08:59 47.68831 25.03459 36213 ft 445 kts 200°
2026-04-29 08:59 47.62733 25.01682 36191 ft 448 kts 197°
2026-04-29 09:00 47.56588 25.00153 36209 ft 448 kts 197°
2026-04-29 09:00 47.50456 24.98600 36203 ft 446 kts 197°
2026-04-29 09:01 47.44348 24.97007 36190 ft 445 kts 197°
2026-04-29 09:01 47.38292 24.95400 36185 ft 445 kts 198°
2026-04-29 09:02 47.32204 24.93790 36182 ft 444 kts 198°
2026-04-29 09:02 47.26118 24.92205 36176 ft 444 kts 198°
2026-04-29 09:03 47.20032 24.90616 36173 ft 444 kts 198°
2026-04-29 09:03 47.13936 24.89027 36171 ft 445 kts 198°
2026-04-29 09:04 47.07845 24.87441 36152 ft 445 kts 198°
2026-04-29 09:04 47.01750 24.85867 36155 ft 445 kts 198°
2026-04-29 09:05 46.95647 24.84294 36141 ft 445 kts 198°
2026-04-29 09:05 46.89542 24.82708 36150 ft 445 kts 198°
2026-04-29 09:06 46.83447 24.81127 36147 ft 445 kts 198°
2026-04-29 09:06 46.77344 24.79564 36148 ft 445 kts 198°
2026-04-29 09:07 46.71239 24.77996 36142 ft 446 kts 198°
2026-04-29 09:07 46.65127 24.76424 36141 ft 446 kts 198°
2026-04-29 09:08 46.59014 24.74851 36138 ft 446 kts 198°
2026-04-29 09:08 46.52897 24.73292 36132 ft 447 kts 198°
2026-04-29 09:09 46.46762 24.71735 36137 ft 448 kts 198°
2026-04-29 09:09 46.40633 24.70182 36136 ft 448 kts 198°
2026-04-29 09:10 46.34496 24.68626 36104 ft 448 kts 198°
2026-04-29 09:10 46.28379 24.67079 36139 ft 451 kts 198°
2026-04-29 09:11 46.22199 24.65513 36132 ft 451 kts 198°
2026-04-29 09:11 46.16015 24.63953 36130 ft 451 kts 198°
2026-04-29 09:12 46.09819 24.62400 36137 ft 452 kts 198°
2026-04-29 09:12 46.03617 24.60853 36133 ft 452 kts 198°
2026-04-29 09:13 45.97420 24.59312 36140 ft 452 kts 198°
2026-04-29 09:13 45.91230 24.57768 36136 ft 452 kts 198°
2026-04-29 09:14 45.85028 24.56222 36130 ft 452 kts 198°
2026-04-29 09:14 45.78822 24.54680 36132 ft 453 kts 198°
2026-04-29 09:15 45.73621 24.53392 36135 ft 453 kts 198°
2026-04-29 09:15 45.67443 24.51869 36132 ft 448 kts 198°
2026-04-29 09:16 45.61359 24.50372 36145 ft 446 kts 198°
2026-04-29 09:16 45.55244 24.48871 36152 ft 446 kts 198°
2026-04-29 09:17 45.49150 24.47362 36135 ft 441 kts 199°
2026-04-29 09:17 45.43131 24.45896 36136 ft 438 kts 199°
2026-04-29 09:18 45.37120 24.44427 36140 ft 438 kts 199°
2026-04-29 09:18 45.31115 24.42961 36130 ft 438 kts 199°
2026-04-29 09:19 45.25101 24.41492 36143 ft 438 kts 199°
2026-04-29 09:19 45.19091 24.40029 36141 ft 439 kts 199°
2026-04-29 09:20 45.13074 24.38573 36142 ft 439 kts 199°
2026-04-29 09:20 45.07036 24.37110 36141 ft 441 kts 199°
2026-04-29 09:21 45.00968 24.35645 36141 ft 443 kts 199°
2026-04-29 09:21 44.94901 24.34182 36150 ft 443 kts 199°
2026-04-29 09:22 44.88818 24.32724 36146 ft 445 kts 199°
2026-04-29 09:22 44.82707 24.31257 36145 ft 446 kts 199°
2026-04-29 09:23 44.76585 24.29794 36141 ft 446 kts 199°
2026-04-29 09:23 44.70459 24.28334 36134 ft 446 kts 198°
2026-04-29 09:24 44.64338 24.26875 36149 ft 447 kts 199°
2026-04-29 09:24 44.58213 24.25420 36149 ft 447 kts 198°
2026-04-29 09:25 44.52084 24.23966 36124 ft 446 kts 198°
2026-04-29 09:25 44.45966 24.22518 36140 ft 445 kts 198°
2026-04-29 09:26 44.39899 24.21084 36147 ft 445 kts 198°
2026-04-29 09:26 44.33793 24.19644 36134 ft 445 kts 198°
2026-04-29 09:27 44.27644 24.18199 36148 ft 445 kts 198°
2026-04-29 09:27 44.21547 24.16768 36141 ft 444 kts 198°
2026-04-29 09:28 44.15497 24.15350 36140 ft 444 kts 198°
2026-04-29 09:28 44.09411 24.13926 36140 ft 444 kts 198°
2026-04-29 09:29 44.03313 24.12504 36141 ft 444 kts 198°
2026-04-29 09:29 43.94184 24.10380 36110 ft 444 kts 198°
2026-04-29 09:30 43.88091 24.08966 36138 ft 444 kts 198°
2026-04-29 09:30 43.81995 24.07554 36135 ft 444 kts 198°
2026-04-29 09:31 43.75894 24.06145 36106 ft 444 kts 198°
2026-04-29 09:31 43.69801 24.04739 36129 ft 444 kts 198°
2026-04-29 09:32 43.63692 24.03333 36129 ft 444 kts 198°
2026-04-29 09:32 43.57600 24.01935 36130 ft 444 kts 198°
2026-04-29 09:33 43.51507 24.00538 36128 ft 444 kts 197°
2026-04-29 09:33 43.45423 23.99146 36127 ft 443 kts 197°
2026-04-29 09:34 43.39330 23.97755 36123 ft 444 kts 197°
2026-04-29 09:34 43.33243 23.96368 36125 ft 443 kts 197°
2026-04-29 09:35 43.27163 23.94986 36121 ft 443 kts 197°
2026-04-29 09:35 43.21118 23.93615 36122 ft 443 kts 197°
2026-04-29 09:36 43.15033 23.92237 36125 ft 443 kts 197°
2026-04-29 09:36 43.08948 23.90860 36121 ft 443 kts 197°
2026-04-29 09:37 43.02859 23.89486 36106 ft 443 kts 197°
2026-04-29 09:37 42.96779 23.88111 36111 ft 443 kts 197°
2026-04-29 09:38 42.90687 23.86748 36115 ft 443 kts 197°
2026-04-29 09:38 42.84599 23.85388 36113 ft 443 kts 197°
2026-04-29 09:39 42.78511 23.84027 36111 ft 443 kts 197°
2026-04-29 09:39 42.72427 23.82668 36113 ft 443 kts 196°
2026-04-29 09:40 42.66231 23.82021 36113 ft 456 kts 182°
2026-04-29 09:40 42.59934 23.83606 36108 ft 463 kts 172°
2026-04-29 09:41 42.53683 23.85768 36116 ft 464 kts 171°
2026-04-29 09:41 42.47437 23.88005 36112 ft 464 kts 171°
2026-04-29 09:42 42.41187 23.90193 36124 ft 464 kts 171°
2026-04-29 09:42 42.34936 23.92347 36105 ft 463 kts 171°
2026-04-29 09:43 42.28675 23.94366 36110 ft 461 kts 174°
2026-04-29 09:43 42.22379 23.95927 36116 ft 459 kts 176°
2026-04-29 09:44 42.16078 23.97380 36110 ft 460 kts 175°
2026-04-29 09:44 42.09821 23.98855 36115 ft 460 kts 175°
2026-04-29 09:45 42.03521 24.00376 36104 ft 460 kts 175°
2026-04-29 09:45 41.97221 24.01903 36104 ft 460 kts 175°
2026-04-29 09:46 41.90888 24.03439 36101 ft 460 kts 175°
2026-04-29 09:46 41.84640 24.04950 36094 ft 459 kts 175°
2026-04-29 09:47 41.78342 24.06469 36093 ft 459 kts 175°
2026-04-29 09:47 41.72053 24.07983 36098 ft 463 kts 175°
2026-04-29 09:48 41.68884 24.08744 35767 ft 461 kts 175°
2026-04-29 09:48 41.65724 24.09504 35020 ft 462 kts 175°
2026-04-29 09:48 41.62518 24.10275 34225 ft 462 kts 175°
2026-04-29 09:48 41.59392 24.11025 33413 ft 461 kts 174°
2026-04-29 09:49 41.56190 24.11702 32506 ft 458 kts 179°
2026-04-29 09:49 41.53028 24.11752 31545 ft 453 kts 188°
2026-04-29 09:49 41.49926 24.11419 30561 ft 454 kts 190°
2026-04-29 09:49 41.46792 24.10960 29613 ft 452 kts 192°
2026-04-29 09:50 41.43671 24.10443 28530 ft 452 kts 192°
2026-04-29 09:50 41.40546 24.09900 27374 ft 454 kts 192°
2026-04-29 09:50 41.37414 24.09348 26200 ft 455 kts 192°
2026-04-29 09:50 41.34260 24.08796 24967 ft 458 kts 191°
2026-04-29 09:51 41.31117 24.08259 24085 ft 453 kts 191°
2026-04-29 09:51 41.28007 24.07738 23235 ft 447 kts 191°
2026-04-29 09:51 41.24944 24.07232 22383 ft 439 kts 191°
2026-04-29 09:51 41.21980 24.06749 22067 ft 420 kts 191°
2026-04-29 09:52 41.19139 24.06292 21789 ft 403 kts 191°
2026-04-29 09:52 41.16401 24.05849 21522 ft 389 kts 191°
2026-04-29 09:52 41.13764 24.05419 21262 ft 376 kts 191°
2026-04-29 09:52 41.11204 24.04998 21001 ft 366 kts 191°
2026-04-29 09:53 41.08688 24.04580 20742 ft 364 kts 192°
2026-04-29 09:53 41.06182 24.04160 20505 ft 363 kts 192°
2026-04-29 09:53 41.03678 24.03740 20253 ft 362 kts 191°
2026-04-29 09:53 41.01187 24.03326 20008 ft 361 kts 191°
2026-04-29 09:54 40.98699 24.02923 19772 ft 359 kts 191°
2026-04-29 09:54 40.96220 24.02530 19517 ft 356 kts 191°
2026-04-29 09:54 40.93757 24.02143 19296 ft 357 kts 191°
2026-04-29 09:54 40.91290 24.01754 19052 ft 356 kts 191°
2026-04-29 09:55 40.88835 24.01368 18807 ft 354 kts 191°
2026-04-29 09:55 40.86393 24.00985 18589 ft 353 kts 191°
2026-04-29 09:55 40.83960 24.00604 18338 ft 352 kts 190°
2026-04-29 09:55 40.81527 24.00223 18053 ft 351 kts 191°
2026-04-29 09:56 40.79114 23.99843 17790 ft 349 kts 191°
2026-04-29 09:56 40.76711 23.99461 17532 ft 347 kts 191°
2026-04-29 09:56 40.74318 23.99082 17269 ft 346 kts 191°
2026-04-29 09:56 40.71935 23.98704 16995 ft 344 kts 190°
2026-04-29 09:57 40.69563 23.98330 16747 ft 342 kts 190°
2026-04-29 09:57 40.67202 23.97958 16497 ft 341 kts 190°
2026-04-29 09:57 40.64855 23.97583 16235 ft 339 kts 191°
2026-04-29 09:57 40.62618 23.96774 15959 ft 328 kts 206°
2026-04-29 09:58 40.60730 23.95216 15562 ft 317 kts 225°
2026-04-29 09:58 40.59401 23.92961 15124 ft 310 kts 245°
2026-04-29 09:58 40.58738 23.90303 14704 ft 305 kts 259°
2026-04-29 09:58 40.58337 23.87570 14253 ft 303 kts 261°
2026-04-29 09:59 40.57973 23.84846 13798 ft 302 kts 262°
2026-04-29 09:59 40.57609 23.82138 13340 ft 299 kts 261°
2026-04-29 09:59 40.57242 23.79454 12908 ft 297 kts 261°
2026-04-29 09:59 40.56876 23.76796 12487 ft 294 kts 261°
2026-04-29 10:00 40.56511 23.74180 12192 ft 296 kts 261°
2026-04-29 10:00 40.56259 23.72374 12132 ft 298 kts 260°
2026-04-29 10:00 40.55758 23.68820 12132 ft 298 kts 261°
2026-04-29 10:00 40.55503 23.67012 12137 ft 299 kts 261°
2026-04-29 10:01 40.55004 23.63503 12120 ft 289 kts 260°
2026-04-29 10:01 40.54757 23.61768 12118 ft 285 kts 261°
2026-04-29 10:01 40.54396 23.59216 12123 ft 284 kts 261°
2026-04-29 10:01 40.54033 23.56664 12119 ft 284 kts 260°
2026-04-29 10:02 40.53674 23.54144 12119 ft 284 kts 260°
2026-04-29 10:02 40.53190 23.50745 11911 ft 281 kts 260°
2026-04-29 10:02 40.52951 23.49065 11542 ft 283 kts 260°
2026-04-29 10:02 40.52586 23.46513 11015 ft 285 kts 260°
2026-04-29 10:03 40.52220 23.43960 10560 ft 283 kts 259°
2026-04-29 10:03 40.51856 23.41425 10157 ft 280 kts 259°
2026-04-29 10:03 40.51493 23.38912 9686 ft 279 kts 259°
2026-04-29 10:03 40.51135 23.36420 9203 ft 277 kts 259°
2026-04-29 10:04 40.50777 23.33931 8633 ft 279 kts 259°
2026-04-29 10:04 40.50416 23.31437 8165 ft 276 kts 259°
2026-04-29 10:04 40.50052 23.28944 7549 ft 279 kts 259°
2026-04-29 10:04 40.49686 23.26433 6941 ft 281 kts 259°
2026-04-29 10:05 40.49291 23.23919 6388 ft 281 kts 253°
2026-04-29 10:05 40.48293 23.21782 6033 ft 274 kts 221°
2026-04-29 10:05 40.46616 23.20748 5849 ft 265 kts 193°
2026-04-29 10:05 40.44837 23.20408 5676 ft 254 kts 184°
2026-04-29 10:06 40.43110 23.20295 5532 ft 243 kts 186°
2026-04-29 10:06 40.41497 23.20002 5282 ft 228 kts 192°
2026-04-29 10:06 40.39985 23.19477 5024 ft 222 kts 199°
2026-04-29 10:06 40.38547 23.18739 5013 ft 222 kts 205°
2026-04-29 10:07 40.37177 23.17814 4997 ft 221 kts 210°
2026-04-29 10:07 40.35885 23.16725 4990 ft 221 kts 216°
2026-04-29 10:07 40.34683 23.15479 4994 ft 220 kts 221°
2026-04-29 10:07 40.33585 23.14091 4989 ft 219 kts 226°
2026-04-29 10:08 40.32591 23.12583 4811 ft 219 kts 231°
2026-04-29 10:08 40.31696 23.10938 4429 ft 224 kts 237°
2026-04-29 10:08 40.30901 23.09151 4081 ft 228 kts 241°
2026-04-29 10:08 40.30238 23.07287 3986 ft 222 kts 246°
2026-04-29 10:09 40.29722 23.05385 3990 ft 222 kts 251°
2026-04-29 10:09 40.29161 23.03527 3979 ft 218 kts 231°
2026-04-29 10:09 40.27931 23.02481 3984 ft 215 kts 189°
2026-04-29 10:09 40.26495 23.02811 3991 ft 214 kts 148°
2026-04-29 10:10 40.25610 23.04347 3994 ft 219 kts 106°
2026-04-29 10:10 40.25737 23.06311 3992 ft 223 kts 65°
2026-04-29 10:10 40.26802 23.07784 3999 ft 227 kts 36°
2026-04-29 10:10 40.28132 23.08928 3999 ft 231 kts 33°
2026-04-29 10:11 40.29551 23.09910 3991 ft 228 kts 22°
2026-04-29 10:11 40.31047 23.10268 4004 ft 212 kts 358°
2026-04-29 10:11 40.32397 23.09780 3979 ft 195 kts 328°
2026-04-29 10:11 40.33391 23.08630 3994 ft 190 kts 308°
2026-04-29 10:12 40.34187 23.07268 3793 ft 187 kts 303°
2026-04-29 10:12 40.34943 23.05881 3529 ft 188 kts 304°
2026-04-29 10:12 40.35693 23.04568 3481 ft 171 kts 305°
2026-04-29 10:12 40.36368 23.03405 3478 ft 151 kts 305°
2026-04-29 10:13 40.37003 23.02340 3349 ft 144 kts 310°
2026-04-29 10:13 40.37820 23.01623 3149 ft 142 kts 341°
2026-04-29 10:13 40.38765 23.01276 2907 ft 140 kts 348°
2026-04-29 10:13 40.39711 23.00983 2675 ft 140 kts 348°
2026-04-29 10:14 40.40659 23.00689 2451 ft 140 kts 347°
2026-04-29 10:14 40.41602 23.00394 2233 ft 139 kts 348°
2026-04-29 10:14 40.42547 23.00098 2026 ft 140 kts 347°
2026-04-29 10:14 40.43492 22.99798 1802 ft 139 kts 347°
2026-04-29 10:15 40.44432 22.99497 1522 ft 139 kts 347°
2026-04-29 10:15 40.45357 22.99175 1348 ft 137 kts 345°
2026-04-29 10:15 40.46274 22.98831 1199 ft 136 kts 346°
2026-04-29 10:15 40.47216 22.98536 1008 ft 141 kts 347°
2026-04-29 10:16 40.48175 22.98267 772 ft 140 kts 346°
2026-04-29 10:16 40.49109 22.97992 479 ft 132 kts 345°
2026-04-29 10:16 40.49975 22.97742 308 ft 124 kts 341°
2026-04-29 10:16 40.50801 22.97470 122 ft 121 kts 343°
2026-04-29 10:17 40.51569 22.97223 35 ft 102 kts 347°
2026-04-29 10:17 40.52103 22.97053 32 ft 49 kts 346°
2026-04-29 10:17 40.52345 22.96978 34 ft 45 kts 346°
2026-04-29 10:17 40.52603 22.96897 35 ft 26 kts 355°
2026-04-29 10:18 40.52676 22.96976 36 ft 12 kts 68°
2026-04-29 10:18 40.52652 22.97057 35 ft 7 kts 143°
2026-04-29 10:18 40.52611 22.97075 35 ft 7 kts 162°
2026-04-29 10:18 40.52603 22.97079 35 ft 0 kts 162°
2026-04-29 10:19 40.52600 22.97080 35 ft 0 kts 162°
2026-04-29 10:19 40.52583 22.97115 35 ft 6 kts 108°
2026-04-29 10:19 40.52572 22.97151 35 ft 4 kts 118°
2026-04-29 10:19 40.52513 22.97201 35 ft 13 kts 159°
2026-04-29 10:20 40.52477 22.97218 35 ft 0 kts 160°
2026-04-29 10:20 40.52444 22.97234 35 ft 14 kts 158°
2026-04-29 10:20 40.52349 22.97329 34 ft 23 kts 137°
2026-04-29 10:20 40.52206 22.97517 35 ft 29 kts 133°
2026-04-29 10:21 40.52097 22.97718 35 ft 23 kts 131°
2026-04-29 10:21 40.52034 22.97819 35 ft 13 kts 132°
2026-04-29 10:21 40.51986 22.97944 35 ft 22 kts 107°
2026-04-29 10:21 40.51938 22.98186 35 ft 25 kts 104°
2026-04-29 10:22 40.51963 22.98314 35 ft 13 kts 33°
2026-04-29 10:22 40.52036 22.98379 35 ft 10 kts 77°
2026-04-29 10:22 40.52027 22.98492 34 ft 16 kts 102°
2026-04-29 10:22 40.52040 22.98553 33 ft 3 kts 35°
2026-04-29 10:23 40.52059 22.98564 34 ft 1 kts 20°
2026-04-29 10:23 40.52067 22.98567 34 ft 2 kts 18°
2026-04-29 10:23 40.52069 22.98568 34 ft 0 kts 18°